User: anonymous   Login
Location: Unspecified
(0.0000°N, 0.0000°E)
Time: 00:06:11
(UTC+00:00)
Language:

STARLINK-2483 - Orbit

View from above orbital plane
View from above orbital plane
View from above satellite
View from above satellite

Ground track
Ground track

The orbit is defined by the following mean orbital elements,

1 48140U          26145.43153595 +.00000000 +00000-0 +20132-4 0 00005
2 48140  53.1580 168.7457 0001380  89.5439 270.5721 15.31704686    04
Epoch (UTC): 25 May 2026 10:21:24
Eccentricity: 0.0001380
inclination: 53.1580°
perigee height: 470 km
apogee height: 472 km
right ascension of ascending node: 168.7457°
argument of perigee: 89.5439°
revolutions per day: 15.31704686
mean anomaly at epoch: 270.5721°

The dashed part of the orbit path shows where the satellite is in the earth's shadow,  

DLR